Weather History for Prescott, AZ

Change the Weather History Date:

Sunday, May 10, 2009

  Actual Average Record
Temperature  
Mean Temperature 68 °F 60 °F  
Max Temperature 84 °F 75 °F 89 °F (1960)
Min Temperature 53 °F 45 °F 29 °F (1953)
Degree Days  
Heating Degree Days 0    
Month to date heating degree days  
Since 1 July heating degree days  
Cooling Degree Days 4    
Month to date cooling degree days  
Year to date cooling degree days  
Growing Degree Days 18 (Base 50)    
Moisture  
Dew Point 28 °F    
Average Humidity 24    
Maximum Humidity 40    
Minimum Humidity 10    
Precipitation  
Precipitation 0.00 in 0.02 in 0.16 in (1957)
Month to date precipitation 0.15  
Year to date precipitation 4.23  
Sea Level Pressure  
Sea Level Pressure 29.80 in    
Wind  
Wind Speed 7 mph (SSW)    
Max Wind Speed 20 mph    
Max Gust Speed 28 mph    
Visibility 10 miles    
Events      
T = Trace of Precipitation, MM = Missing Value Source: NWS Daily Summary

Daily Weather History Graph

Daily Weather History Graph

Search for Another Location

Airport:

Trip Planner

Search our weather history database for the weather conditions in past years. The results will help you decide how hot, cold, wet, or windy it might be!

Date:

Astronomy

May. 10, 2009 Rise Set
Actual Time 5:30 AM MST 7:21 PM MST
Civil Twilight 5:03 AM MST 7:49 PM MST
Nautical Twilight 4:29 AM MST 8:23 PM MST
Astronomical Twilight 3:54 AM MST 8:58 PM MST
Moon 9:20 PM MST (5/10) 6:10 AM MST (5/10)
Length of Visible Light 14h 46m
Length of Day
13h 51m
Full, 97% of the Moon is Illuminated
May 10
Full
May 17
Last Quarter
May 24
New
May 30
First Quarter
Jun 7
Full

Hourly Weather History & Observations

Time (MST) Temp. Dew Point Humidity Pressure Visibility Wind Dir Wind Speed Gust Speed Precip Events Conditions
12:53 AM 55.9 °F 25.0 °F 30% 29.80 in 10.0 mi NE 4.6 mph - N/A   Clear
1:53 AM 57.0 °F 28.0 °F 33% 29.78 in 10.0 mi SSE 4.6 mph - N/A   Clear
2:53 AM 55.9 °F 30.9 °F 39% 29.78 in 10.0 mi Calm Calm - N/A   Clear
3:53 AM 55.0 °F 30.0 °F 38% 29.78 in 10.0 mi South 6.9 mph - N/A   Clear
4:53 AM 53.1 °F 28.9 °F 40% 29.81 in 10.0 mi South 4.6 mph - N/A   Clear
5:53 AM 54.0 °F 30.0 °F 40% 29.81 in 10.0 mi South 3.5 mph - N/A   Clear
6:53 AM 61.0 °F 33.1 °F 35% 29.82 in 10.0 mi SSW 8.1 mph - N/A   Clear
7:53 AM 70.0 °F 33.1 °F 26% 29.82 in 10.0 mi SSE 4.6 mph - N/A   Clear
8:53 AM 75.0 °F 32.0 °F 21% 29.82 in 10.0 mi Variable 4.6 mph - N/A   Clear
9:53 AM 78.1 °F 32.0 °F 19% 29.82 in 10.0 mi South 9.2 mph - N/A   Clear
10:53 AM 80.1 °F 30.0 °F 16% 29.82 in 10.0 mi SSE 10.4 mph 18.4 mph N/A   Clear
11:53 AM 82.0 °F 30.0 °F 15% 29.82 in 10.0 mi South 8.1 mph - N/A   Clear
12:53 PM 84.0 °F 25.0 °F 12% 29.82 in 10.0 mi SW 15.0 mph 19.6 mph N/A   Clear
1:53 PM 84.0 °F 24.1 °F 11% 29.81 in 10.0 mi SW 12.7 mph 24.2 mph N/A   Clear
2:53 PM 84.0 °F 21.0 °F 10% 29.80 in 10.0 mi SSW 15.0 mph 21.9 mph N/A   Clear
3:53 PM 84.0 °F 21.9 °F 10% 29.79 in 10.0 mi SSW 16.1 mph 21.9 mph N/A   Clear
4:53 PM 82.9 °F 25.0 °F 12% 29.79 in 10.0 mi SW 19.6 mph 27.6 mph N/A   Clear
5:53 PM 81.0 °F 24.1 °F 12% 29.78 in 10.0 mi SSW 13.8 mph - N/A   Clear
6:53 PM 78.1 °F 25.0 °F 14% 29.78 in 10.0 mi SW 11.5 mph - N/A   Clear
7:53 PM 73.0 °F 27.0 °F 18% 29.78 in 10.0 mi SSW 4.6 mph - N/A   Clear
8:53 PM 66.0 °F 33.1 °F 29% 29.81 in 10.0 mi South 4.6 mph - N/A   Clear
9:53 PM 64.9 °F 28.0 °F 25% 29.81 in 10.0 mi South 5.8 mph - N/A   Clear
10:53 PM 61.0 °F 28.9 °F 30% 29.82 in 10.0 mi SSE 10.4 mph 18.4 mph N/A   Clear
11:53 PM 59.0 °F 30.9 °F 35% 29.83 in 10.0 mi South 6.9 mph - N/A   Clear